2020-102A (47296 NORAD) Tracking and Keplerian Element Data
This shows tracking and keplerian element data for the satellite.
Feedback or suggestion? Click here.
Element | Value |
Catalog | 47296 |
Name | 2020-102A |
Epoch Orbit | 1087 |
Epoch Day | 62.80307017 |
Epoch Year | 2021 |
RAAN | 162.0128 |
Inclination | 97.4311 |
Eccentricity | 0.0006226 |
Argument of Perigee | 304.2018 |
Mean Anonmoly | 154.5071 |
Mean Motion | 15.1886287 |
Decay Rate | 1.437E-05 |
L1 | 1 47296U 20102A 21062.80307017 .00001437 00000-0 72174-4 0 9990 |
L2 | 2 47296 97.4311 162.0128 0006226 304.2018 154.5071 15.18862870 10874 |
Live tracking and technical data element details for 2020-102A (NORAD 47296). 2020-102A can be tracked NOW for your location showing map with azimuth and elevation plus other details from your city location.
Track the satellite on the map from your city or location and see movement details for azimuth, elevation, latitude, longitude, range, height, and movement on the map or in text.
IsCatalogInMostPopularTable: catalog: 47296, numindb: 25
Update: records affected: 1
GetName: 47296 2020-102A
Hit Count: updated at: Fri, 05 Mar 2021 07:48:54 GMT